Regional Weather Roundup
Issued by NWS

Home | Current Version | Previous Version | Graphics & Text | Print | Product List | Glossary On
Versions: 1 2 3 4 5 6 7 8 9 10 11 12 13 14 15 16 17 18 19 20 21 22 23 24 25 26 27 28 29 30 31 32 33 34 35 36 37 38 39 40 41 42 43 44 45 46 47 48 49 50
000
ASUS43 KMPX 280501
RWRMN
WEATHER ROUNDUP FOR MINNESOTA
NATIONAL WEATHER SERVICE TWIN CITIES/CHANHASSEN MN
1100 PM CST FRI FEB 27 2015


NOTE: "FAIR" INDICATES FEW OR NO CLOUDS BELOW 12,000 FEET WITH NO
SIGNIFICANT WEATHER AND/OR OBSTRUCTIONS TO VISIBILITY. N/A MEANS
CURRENT SKY AND/OR WEATHER CONDITIONS ARE NOT AVAILABLE.

MNZ060>063-068>070-280600-
   Twin Cities Metro

CITY           SKY/WX    TMP DP  RH WIND       PRES   REMARKS
TWIN CITIES    CLEAR      6  -3  66 SW9       30.53F WCI  -8
ST PAUL        CLEAR      4  -3  73 SE5       30.56S WCI  -5
CRYSTAL        CLEAR      7  -2  66 S7        30.51S WCI  -5
BLAINE         CLEAR      9   1  72 S7        30.51R WCI  -3
LAKEVILLE      CLEAR      0  -4  85 S2        30.53S
EDEN PRAIRIE   CLEAR      3  -4  72 SW8       30.52S WCI -10
SOUTH ST PAUL  CLEAR      5  -2  71 S5        30.54S WCI  -4
LAKE ELMO      FAIR       5   0  78 S7        30.53S WCI  -7
$$
MNZ001>005-007-008-013>017-022>024-027-028-280600-
   Northwest Minnesota

CITY           SKY/WX    TMP DP  RH WIND       PRES   REMARKS
BEMIDJI        FAIR       4  -5  67 S6        30.34S WCI  -7
HALLOCK        CLEAR      0  -6  78 S10       30.31F WCI -17
ROSEAU         PTCLDY     9   0  66 SW12      30.31S WCI  -6
WARROAD        PTCLDY     7  -2  66 SW7       30.31R WCI  -5
THIEF RVR FALL PTCLDY     5  -2  72 S9        30.33S WCI  -9
CROOKSTON      PTCLDY     5  -2  72 S12       30.37S WCI -11
FOSSTON        PTCLDY     3  -2  78 S16       30.34S WCI -16
DETROIT LAKES  CLEAR      3  -4  72 S6        30.36F WCI  -8
MOORHEAD       PTCLDY     7   1  78 S10       30.39S WCI  -8
PARK RAPIDS    CLEAR      2  -6  69 S5        30.36S WCI  -8
MAHNOMEN       FAIR       4  -3  73 S10       30.35F WCI -11
$$
MNZ006-009>011-018-025>026-280600-
   North Central Minnesota

CITY           SKY/WX    TMP DP  RH WIND       PRES   REMARKS
BAUDETTE       PTCLDY     1  -6  72 S5        30.31S WCI  -9
FLAG ISLAND    PTCLDY    -2  -6  84 S8        30.28F WCI -17
INTL FALLS     CLEAR     -6 -14  68 CALM      30.33S
WASKISH        PTCLDY     7  -4  61 S5        30.34R WCI  -2
BIG FORK       CLEAR     -9 -17  70 S5        30.35S WCI -21
LONGVILLE      CLEAR      3  -6  66 CALM      30.39R
GRAND RAPIDS   CLEAR      7  -6  56 S6        30.36S WCI  -3
CRANE LAKE     CLEAR    -11 -18  70 CALM      30.37S
ORR            CLEAR      3 -15  43 CALM      30.32S
COOK           CLEAR      5  -9  51 SW3       30.35S
WALKER         FAIR       5  -5  63 SW5       30.37S WCI  -4
$$
MNZ012-019>021-037-280600-
   Northeast Minnesota

CITY           SKY/WX    TMP DP  RH WIND       PRES   REMARKS
DULUTH         CLEAR      7  -6  55 SW9       30.38S WCI  -7
ELY            CLEAR      3 -11  51 SW3       30.34S
HIBBING        CLEAR     -6 -16  61 CALM      30.36S
EVELETH        CLEAR      0  -9  65 SW3       30.37S
DULUTH HARBOR  FAIR       9  -4  56 SW10      30.47R WCI  -6
TWO HARBORS    CLEAR      9  -6  52 W6        30.38S WCI  -1
SILVER BAY     CLEAR      7  -8  51 CALM      30.37S
GRAND MARAIS     N/A      9  -8  46 W5        30.40S WCI   1
G MARAIS ARPRT PTCLDY     3 -15  43 W6        30.29S WCI  -8
$$
MNZ029>031-032-039>041-046>048-054>057-064-280600-
   West Central Minnesota

CITY           SKY/WX    TMP DP  RH WIND       PRES   REMARKS
FERGUS FALLS   CLEAR      1  -6  71 S8        30.44S WCI -12
WHEATON        CLEAR      3  -4  72 SE12      30.42F WCI -13
MORRIS         CLEAR      0  -6  78 S8        30.42S WCI -15
ALEXANDRIA     CLEAR      4  -3  73 S9        30.40F WCI -10
ELBOW LAKE     FAIR       0  -5  78 S9        30.40S WCI -15
WADENA         PTCLDY    -4  -9  77 S5        30.38F WCI -15
APPLETON       CLEAR      5  -2  72 S7        30.44F WCI  -7
BENSON         CLEAR      1  -4  78 SW7       30.44S WCI -11
ORTONVILLE     CLEAR      3  -2  78 S8        30.41F WCI -10
MADISON        CLEAR      1  -4  78 S7        30.44F WCI -11
WILLMAR        FAIR       3  -2  78 CALM      30.47F
$$
MNZ033>034-036-042>043-049>051-058-059-280600-
   Central Minnesota

CITY           SKY/WX    TMP DP  RH WIND       PRES   REMARKS
ST CLOUD       CLEAR      2  -4  76 S6        30.47S WCI  -9
SAUK CENTRE    FAIR       2  -2  81 S6        30.43F WCI  -9
PAYNESVILLE    CLEAR      1  -3  81 SE5       30.46S WCI  -8
AITKIN         CLEAR      5  -8  56 S6        30.41S WCI  -6
PINE RIVER     CLEAR      1  -6  71 S3        30.42S
BRAINERD       CLEAR      3  -6  66 S7        30.42S WCI  -9
STAPLES        PTCLDY     0  -6  78 S6        30.40F WCI -12
LONG PRAIRIE   FAIR       3  -4  72 S6        30.42F WCI  -8
LITTLE FALLS   CLEAR      1  -4  78 S3        30.45F
LITCHFIELD     CLEAR      3  -2  78 CALM      30.48S
MAPLE LAKE     CLEAR      6   1  80 S3        30.50S
$$
MNZ037-044-045-052-053-280600-
   East Central Minnesota

CITY           SKY/WX    TMP DP  RH WIND       PRES   REMARKS
PRINCETON      CLEAR      3  -2  78 CALM      30.48F
MORA           CLEAR      5  -4  66 S3        30.49S
RUSH CITY      PTCLDY     4  -2  75 CALM      30.50R
MOOSE LAKE     CLEAR      0  -8  71 CALM      30.43S
HINCKLEY       FAIR       5  -4  66 S5        30.47S WCI  -4
CLOQUET        CLEAR      5  -8  56 SW7       30.40S WCI  -7
MCGREGOR       PTCLDY     5  -4  66 SW5       30.42S WCI  -4
$$
MNZ071>073-080-081-089-090-097-098-280600-
   Southwest Minnesota

CITY           SKY/WX    TMP DP  RH WIND       PRES   REMARKS
MONTEVIDEO     CLEAR      3  -2  78 SW6       30.46F WCI  -8
GRANITE FALLS  CLEAR      1  -4  79 S10       30.48F WCI -15
CANBY          CLEAR      7   0  71 S9        30.43F WCI  -6
MARSHALL       CLEAR      3  -2  78 S15       30.45F WCI -15
REDWOOD FALLS  CLEAR      3  -3  76 S8        30.49F WCI -10
OLIVIA         CLEAR      1  -4  78 S8        30.48S WCI -12
PIPESTONE      CLEAR      1  -4  78 S10       30.40F WCI -14
WINDOM         PTCLDY     0  -6  78 CALM      30.47S
WORTHINGTON    CLEAR     19 -11  25 S13       30.46F WCI   7
JACKSON        PTCLDY     0  -6  78 S8        30.48F WCI -15
TRACY          CLEAR      4  -2  75 S13       30.45F WCI -13
SLAYTON        CLEAR      1  -6  72 S8        30.43F WCI -13
$$
MNZ065>067-074>077-082>085-091>093-280600-
   South Central Minnesota

CITY           SKY/WX    TMP DP  RH WIND       PRES   REMARKS
MANKATO        CLEAR      1  -8  66 S8        30.52F WCI -12
NEW ULM        CLEAR      1  -6  71 S8        30.51S WCI -12
ST JAMES       CLEAR      1  -6  71 S9        30.52F WCI -14
FAIRMONT       PTCLDY     0  -6  78 S6        30.50S WCI -12
GLENCOE        CLEAR      4  -1  79 S7        30.50S WCI  -9
FARIBAULT      CLEAR      0  -6  78 S8        30.53F WCI -15
OWATONNA       CLEAR      0  -4  85 S10       30.53S WCI -17
WASECA         PTCLDY    -4  -8  84 S7        30.55S WCI -18
ALBERT LEA     PTCLDY    -2  -6  84 S3        30.53F
$$
MNZ078>079-086>088-094>096-280600-
   Southeast Minnesota

CITY           SKY/WX    TMP DP  RH WIND       PRES   REMARKS
ROCHESTER      PTCLDY    -8 -12  83 S9        30.53S WCI -25
RED WING       CLEAR      1  -4  78 S5        30.56S WCI  -8
STANTON        CLEAR      1  -4  77 S8        30.53F WCI -12
DODGE CENTER   PTCLDY     0  -4  85 SW15      30.51S WCI -20
WINONA         PTCLDY     0  -6  78 CALM      30.62S
AUSTIN         PTCLDY    -6  -9  84 S6        30.54S WCI -18
PRESTON        MOCLDY    -5  -9  83 SW6       30.55S WCI -17
$$
ABBREVIATIONS USED IN REMARKS
   TC - TEMPERATURES IN CELSIUS
  WCI - WIND CHILL INDEX
   HX - HEAT INDEX
  VSB - VISIBILITY
$$


USA.gov is the U.S. government's official web portal to all federal, state and local government web resources and services.